User: anonymous   Login
Location: Codford Saint Peter
(51.1597°N, 2.0531°W)
Time: 22:21:58
(UTC+00:00)
Language:

Cosmos 1805 - Orbit

View from above orbital plane
View from above orbital plane
View from above satellite
View from above satellite

Ground track
Ground track

The orbit data is extracted from the following two-line orbital elements,

1 17191U 86097A   20328.13652986  .00000737  00000-0  40307-4 0  9999
2 17191  82.4767 232.4260 0006179  75.0737 285.1178 15.12771332853310
Epoch (UTC): 23 November 2020 03:16:36
Eccentricity: 0.0006179
inclination: 82.4767°
perigee height: 523 km
apogee height: 532 km
right ascension of ascending node: 232.4260°
argument of perigee: 75.0737°
revolutions per day: 15.12771332
mean anomaly at epoch: 285.1178°
orbit number at epoch: 85331

The dashed part of the orbit path shows where the satellite is in the earth's shadow,  

DLR